Regional Weather Roundup
Issued by NWS

Home | Current Version | Previous Version | Graphics & Text | Print | Product List | Glossary On
Versions: 1 2 3 4 5 6 7 8 9 10 11 12 13 14 15 16 17 18 19 20 21 22 23 24 25 26 27 28 29 30 31 32 33 34 35 36 37 38 39 40 41 42 43 44 45 46 47 48 49 50
730
ASUS44 KJAN 292103
RWRMS

MISSISSIPPI HOURLY WEATHER ROUNDUP
NATIONAL WEATHER SERVICE JACKSON MS
400 PM CDT SUN MAR 29 2015

NOTE: "FAIR: INDICATES FEW OR NO CLOUDS BELOW 12,000 FEET WITH NO
SIGNIFICANT WEATHER AND/OR OBSTRUCTIONS TO VISIBILITY.

MSZ001>002-007>008-010>013-018>021-025>028-034>036-292200-
NORTHWEST MISSISSIPPI

CITY           SKY/WX    TMP DP  RH WIND       PRES   REMARKS
CLARKSDALE     FAIR      68  54  60 S15       30.08F
CLEVELAND      FAIR      72  55  54 SW20      30.07F
GREENWOOD      SUNNY     74  48  39 SW16G23   30.09F
GREENVILLE     SUNNY     74  55  51 S17G28    30.06F
OLIVE BRANCH   SUNNY     66  46  48 S15G23    30.08F
OXFORD         FAIR      66  45  45 S13G21    30.11F
TUNICA         CLEAR     68  52  56 S17       30.08F
$$

MSZ003>006-009-014>017-022>024-029>033-037>039-292200-
NORTHEAST MISSISSIPPI

CITY           SKY/WX    TMP DP  RH WIND       PRES   REMARKS
COLUMBUS AFB   SUNNY     67  43  41 S12G22    30.16F
CORINTH        FAIR      63  39  42 SE15      30.12F
GOLDN TRIANGLE SUNNY     66  45  45 S12G21    30.16F
STARKVILLE     FAIR      70  46  43 S8        30.14F
TUPELO         SUNNY     64  42  44 S14       30.14F
$$

MSZ040-058-292200-
CENTRAL MISSISSIPPI

CITY           SKY/WX    TMP DP  RH WIND       PRES   REMARKS
JACKSON INTL   SUNNY     78  51  38 S14G24    30.12F
JACKSON HAWKNS SUNNY     78  51  38 S15G26    30.12F
MERIDIAN KEY   MOSUNNY   72  47  40 S9G21     30.17F
MERIDIAN NAS   MOSUNNY   72  47  41 S9        30.17F
RAYMOND        FAIR      79  75  89 SW16      30.11F
VICKSBURG      SUNNY     79  54  41 S14G29    30.11F
$$

MSZ059>079-292200-
SOUTH MISSISSIPPI

CITY           SKY/WX    TMP DP  RH WIND       PRES   REMARKS
BROOKHAVEN     FAIR      79  57  47 S15G23    30.17F
HATTIESBURG    MOSUNNY   76  55  48 S10       30.20F
MCCOMB         PTSUNNY   76  56  49 SW13      30.17F
NATCHEZ        MOSUNNY   77  57  50 S14G26    30.14F
PINE BELT      MOSUNNY   75  52  43 S14       30.20F
$$

MSZ080>082-292200-
COASTAL MISSISSIPPI

CITY           SKY/WX    TMP DP  RH WIND       PRES   REMARKS
BAY ST LOUIS   PTSUNNY   70  54  56 SE12      30.24F
BILOXI         CLOUDY    68  58  72 SE12      30.25F
PASCAGOULA     PTSUNNY   66  56  70 SE17G23   30.27F
GULFPORT       CLOUDY    68  58  70 SE14      30.25F
$$



USA.gov is the U.S. government's official web portal to all federal, state and local government web resources and services.